IU7LMH-13 Weather Reports


time (UTC)temp
F
wind
direction
speed
knots
gust
knots
rain 1hr
in
rain 24hr
in
rain mn
in
humidity
%
barometer
mb
20260504021138 49 0 0.9 1.7 0.00 0.00 0.00 83 1018.3
20260504020937 49 338 0.9 1.7 0.00 0.00 0.00 82 1018.3
20260504020738 49 0 0.9 1.7 0.00 0.00 0.00 82 1018.0
20260504020338 49 338 0.9 1.7 0.00 0.00 0.00 82 1018.3
20260504020137 49 315 0.9 1.7 0.00 0.00 0.00 81 1018.1
20260504015938 50 338 0.9 1.7 0.00 0.00 0.00 81 1018.2
20260504015738 50 0 0.9 1.7 0.00 0.00 0.00 81 1018.3
20260504015543 50 338 0.9 1.7 0.00 0.00 0.00 81 1018.2
20260504015337 51 338 0.9 1.7 0.00 0.00 0.00 80 1017.9
20260504015136 51 0 0.0 1.7 0.00 0.00 0.00 80 1018.0
20260504014737 52 22 0.9 1.7 0.00 0.00 0.00 79 1018.0
20260504014544 52 0 0.9 1.7 0.00 0.00 0.00 79 1018.0
20260504014338 52 0 0.0 1.7 0.00 0.00 0.00 79 1018.1
20260504014137 52 0 0.0 1.7 0.00 0.00 0.00 79 1018.1
20260504013737 52 0 0.9 1.7 0.00 0.00 0.00 79 1018.0
20260504013541 53 0 0.0 0.0 0.00 0.00 0.00 79 1017.9
20260504013337 53 0 0.9 1.7 0.00 0.00 0.00 79 1017.9
20260504013136 52 22 0.9 1.7 0.00 0.00 0.00 79 1017.9
20260504012938 52 22 0.9 1.7 0.00 0.00 0.00 79 1018.1
20260504012543 52 22 0.0 0.0 0.00 0.00 0.00 79 1017.9
20260504012337 52 22 0.0 1.7 0.00 0.00 0.00 79 1017.9
20260504012136 52 338 0.0 0.0 0.00 0.00 0.00 79 1017.9
20260504011938 52 338 0.0 0.0 0.00 0.00 0.00 79 1018.0
20260504011737 52 0 0.0 1.7 0.00 0.00 0.00 78 1018.0
20260504011544 52 315 0.0 0.0 0.00 0.00 0.00 78 1017.9
20260504011337 53 315 0.0 0.0 0.00 0.00 0.00 78 1017.9
20260504010938 53 315 0.0 0.0 0.00 0.00 0.00 78 1017.8
20260504010738 53 315 0.0 0.0 0.00 0.00 0.00 77 1017.7
20260504010540 53 315 0.0 0.0 0.00 0.00 0.00 77 1017.9
20260504010337 53 0 0.0 0.0 0.00 0.00 0.00 77 1018.1
20260504010137 53 0 0.0 0.0 0.00 0.00 0.00 77 1018.0
20260504005938 53 0 0.0 0.0 0.00 0.00 0.00 77 1017.9
20260504005738 53 0 0.9 1.7 0.00 0.00 0.00 77 1017.9
20260504005542 54 315 0.0 0.0 0.00 0.00 0.00 77 1018.1
20260504005338 54 315 0.0 0.0 0.00 0.00 0.00 77 1017.9
20260504005136 54 315 0.0 0.0 0.00 0.00 0.00 77 1017.9
20260504004938 54 315 0.0 0.0 0.00 0.00 0.00 77 1018.0
20260504004737 54 315 0.0 0.0 0.00 0.00 0.00 76 1018.0
20260504004545 54 315 0.0 0.0 0.00 0.00 0.00 76 1018.1
20260504004337 54 315 0.0 0.0 0.00 0.00 0.00 75 1017.9
20260504004137 54 315 0.0 0.0 0.00 0.00 0.00 74 1018.1
20260504003938 55 315 0.0 0.0 0.00 0.00 0.00 73 1017.9
20260504003737 55 315 0.0 0.0 0.00 0.00 0.00 73 1017.9
20260504003542 55 315 0.0 0.0 0.00 0.00 0.00 73 1017.9
20260504003136 55 315 0.0 0.0 0.00 0.00 0.00 73 1017.9
20260504002937 55 315 0.0 0.0 0.00 0.00 0.00 73 1017.9
20260504002738 56 292 0.0 1.7 0.00 0.00 0.00 73 1018.0
20260504002543 56 315 0.0 1.7 0.00 0.00 0.00 73 1018.0
20260504002337 56 315 0.9 1.7 0.00 0.00 0.00 73 1017.9
20260504002138 56 315 1.7 3.5 0.00 0.00 0.00 73 1017.9
20260504001938 56 315 0.9 1.7 0.00 0.00 0.00 73 1017.8
20260504001738 55 292 0.9 1.7 0.00 0.00 0.00 73 1018.0
20260504001543 55 270 1.7 1.7 0.00 0.00 0.00 73 1018.0
20260504001336 55 292 1.7 3.5 0.00 0.00 0.00 73 1018.1
20260504001137 56 315 0.9 1.7 0.00 0.00 0.00 72 1018.0
20260504000937 56 292 0.9 1.7 0.00 0.00 0.00 72 1018.0
20260504000737 56 292 2.6 3.5 0.00 0.00 0.00 72 1018.1
20260504000540 56 292 2.6 3.5 0.00 0.00 0.00 72 1018.0
20260504000336 56 292 2.6 3.5 0.00 0.00 0.00 72 1018.1
20260504000137 56 292 2.6 3.5 0.00 0.00 0.00 72 1018.1
20260503235936 56 292 1.7 1.7 0.00 0.00 0.00 71 1018.1
20260503235736 56 315 0.0 1.7 0.00 0.00 0.00 71 1018.0
20260503235543 56 292 0.0 0.0 0.00 0.00 0.00 70 1018.1
20260503235336 57 292 0.0 1.7 0.00 0.00 0.00 70 1018.1
20260503235137 57 292 0.0 1.7 0.00 0.00 0.00 70 1018.2
20260503234937 57 292 0.0 1.7 0.00 0.00 0.00 69 1018.1
20260503234737 57 292 1.7 1.7 0.00 0.00 0.00 69 1018.1
20260503234543 57 315 3.5 5.2 0.00 0.00 0.00 69 1018.1
20260503234337 57 292 2.6 3.5 0.00 0.00 0.00 70 1018.1
20260503233736 56 292 3.5 5.2 0.00 0.00 0.00 72 1018.0
20260503233540 56 292 3.5 3.5 0.00 0.00 0.00 72 1018.0
20260503233337 56 292 2.6 3.5 0.00 0.00 0.00 72 1018.1
20260503233136 56 292 3.5 5.2 0.00 0.00 0.00 72 1018.1
20260503232936 56 292 2.6 3.5 0.00 0.00 0.00 72 1018.1
20260503232736 56 292 2.6 3.5 0.00 0.00 0.00 72 1018.1
20260503232542 56 292 1.7 3.5 0.00 0.00 0.00 72 1018.2
20260503232336 56 270 2.6 3.5 0.00 0.00 0.00 72 1018.1
20260503232136 56 270 3.5 3.5 0.00 0.00 0.00 71 1017.9
20260503231938 56 270 3.5 5.2 0.00 0.00 0.00 71 1018.0
20260503231543 56 270 5.2 7.0 0.00 0.00 0.00 71 1018.1
20260503231335 56 270 4.3 7.0 0.00 0.00 0.00 70 1018.0
20260503231136 57 292 4.3 7.0 0.00 0.00 0.00 70 1018.1
20260503230936 57 292 4.3 7.0 0.00 0.00 0.00 70 1018.2
20260503230738 57 292 5.2 6.1 0.00 0.00 0.00 69 1018.1
20260503230540 57 292 3.5 6.1 0.00 0.00 0.00 70 1018.0
20260503230337 57 292 2.6 3.5 0.00 0.00 0.00 70 1018.0
20260503230136 57 292 3.5 5.2 0.00 0.00 0.00 69 1018.0
20260503225937 57 270 3.5 5.2 0.00 0.00 0.00 69 1018.1
20260503225737 58 270 3.5 5.2 0.00 0.00 0.00 68 1018.3
20260503225544 58 292 4.3 5.2 0.00 0.00 0.00 68 1018.1
20260503225335 58 292 3.5 5.2 0.00 0.00 0.00 68 1018.0
20260503224936 58 270 3.5 3.5 0.00 0.00 0.00 67 1018.2
20260503224737 58 270 3.5 5.2 0.00 0.00 0.00 67 1018.0
20260503224543 58 292 3.5 6.1 0.00 0.00 0.00 67 1018.1
20260503224136 58 270 3.5 5.2 0.00 0.00 0.00 67 1018.2
20260503223937 58 248 3.5 5.2 0.00 0.00 0.00 67 1018.3
20260503223736 58 270 3.5 6.1 0.00 0.00 0.00 67 1018.0
20260503223335 58 292 3.5 6.1 0.00 0.00 0.00 67 1018.2
20260503223138 58 270 3.5 5.2 0.00 0.00 0.00 68 1018.1
20260503222737 58 270 3.5 5.2 0.00 0.00 0.00 68 1018.1
20260503222542 58 292 3.5 5.2 0.00 0.00 0.00 68 1018.0
20260503222336 58 270 3.5 5.2 0.00 0.00 0.00 68 1018.2
20260503222136 58 270 2.6 5.2 0.00 0.00 0.00 68 1018.1
20260503221936 58 292 3.5 5.2 0.00 0.00 0.00 68 1018.1
20260503221543 58 270 3.5 6.1 0.00 0.00 0.00 68 1018.0
20260503221341 58 292 3.5 5.2 0.00 0.00 0.00 68 1018.0
20260503221138 58 292 2.6 3.5 0.00 0.00 0.00 67 1018.0
20260503220939 58 292 3.5 5.2 0.00 0.00 0.00 67 1018.0
20260503220740 59 292 3.5 6.1 0.00 0.00 0.00 66 1017.9
20260503220540 59 270 3.5 6.1 0.00 0.00 0.00 66 1017.9
20260503220144 59 270 4.3 6.1 0.00 0.00 0.00 65 1017.9
20260503215937 60 270 3.5 5.2 0.00 0.00 0.00 64 1018.0
20260503215736 60 248 4.3 6.1 0.00 0.00 0.00 64 1018.0
20260503215544 60 270 3.5 6.1 0.00 0.00 0.00 64 1017.9
20260503215337 60 292 3.5 5.2 0.00 0.00 0.00 64 1017.9
20260503215137 60 248 3.5 7.0 0.00 0.00 0.00 64 1017.9
20260503214938 60 315 5.2 7.0 0.00 0.00 0.00 64 1018.0
20260503214738 60 270 4.3 6.1 0.00 0.00 0.00 64 1017.9
20260503214544 60 292 3.5 6.1 0.00 0.00 0.00 64 1017.8
20260503214137 59 292 4.3 6.1 0.00 0.00 0.00 64 1017.8
20260503213938 59 292 3.5 7.0 0.00 0.00 0.00 64 1017.9
20260503213736 60 292 3.5 6.1 0.00 0.00 0.00 64 1017.9
20260503213541 60 270 3.5 5.2 0.00 0.00 0.00 64 1017.9
20260503213337 60 270 3.5 5.2 0.00 0.00 0.00 64 1018.0
20260503213138 60 292 3.5 5.2 0.00 0.00 0.00 63 1018.0
20260503212937 60 270 3.5 5.2 0.00 0.00 0.00 63 1018.0
20260503212736 61 270 3.5 5.2 0.00 0.00 0.00 63 1018.0
20260503212543 61 270 3.5 5.2 0.00 0.00 0.00 62 1018.0
20260503212337 61 270 3.5 5.2 0.00 0.00 0.00 62 1017.7
20260503212137 61 270 3.5 5.2 0.00 0.00 0.00 62 1017.9
20260503211937 62 270 3.5 5.2 0.00 0.00 0.00 61 1018.0
20260503211738 62 270 4.3 7.8 0.00 0.00 0.00 61 1017.9
20260503211543 62 270 4.3 7.0 0.00 0.00 0.00 61 1017.7
20260503211337 62 292 7.0 9.6 0.00 0.00 0.00 61 1017.9
20260503211137 62 292 5.2 7.0 0.00 0.00 0.00 61 1017.8
20260503210938 61 270 5.2 7.8 0.00 0.00 0.00 61 1017.9
20260503210738 61 270 5.2 7.0 0.00 0.00 0.00 61 1017.8
20260503210545 61 292 3.5 7.0 0.00 0.00 0.00 62 1017.9
20260503210138 61 270 4.3 7.0 0.00 0.00 0.00 62 1017.9
20260503205938 61 270 4.3 7.0 0.00 0.00 0.00 62 1017.8
20260503205736 61 270 3.5 5.2 0.00 0.00 0.00 62 1017.8
20260503205543 61 270 3.5 7.0 0.00 0.00 0.00 62 1017.8
20260503205338 61 270 3.5 5.2 0.00 0.00 0.00 62 1017.9
20260503205137 61 270 5.2 7.8 0.00 0.00 0.00 62 1017.8
20260503204938 60 270 5.2 7.8 0.00 0.00 0.00 63 1017.7
20260503204738 60 248 4.3 7.0 0.00 0.00 0.00 65 1017.9
20260503204544 60 270 3.5 7.8 0.00 0.00 0.00 65 1017.8
20260503204338 59 248 3.5 5.2 0.00 0.00 0.00 66 1017.7
20260503204137 58 248 3.5 7.0 0.00 0.00 0.00 67 1017.8
20260503203937 58 270 2.6 3.5 0.00 0.00 0.00 69 1017.8
20260503203737 57 270 2.6 3.5 0.00 0.00 0.00 69 1017.9
20260503203541 57 270 2.6 3.5 0.00 0.00 0.00 70 1017.8
20260503203337 57 270 1.7 3.5 0.00 0.00 0.00 71 1017.7
20260503203137 56 248 1.7 3.5 0.00 0.00 0.00 72 1017.8
20260503202938 56 270 1.7 3.5 0.00 0.00 0.00 73 1017.8
20260503202543 56 270 1.7 1.7 0.00 0.00 0.00 75 1017.8
20260503202338 56 292 1.7 1.7 0.00 0.00 0.00 75 1017.9
20260503202138 56 270 1.7 3.5 0.00 0.00 0.00 76 1017.8
20260503201937 56 270 1.7 1.7 0.00 0.00 0.00 76 1017.9
20260503201738 56 292 1.7 1.7 0.00 0.00 0.00 76 1017.9
20260503201544 56 270 1.7 3.5 0.00 0.00 0.00 76 1017.8
20260503201336 56 270 1.7 1.7 0.00 0.00 0.00 76 1017.9
20260503201137 57 270 1.7 1.7 0.00 0.00 0.00 75 1018.0
20260503200940 57 270 1.7 3.5 0.00 0.00 0.00 75 1018.2
20260503200539 58 270 1.7 3.5 0.00 0.00 0.00 75 1017.9
20260503200337 58 270 1.7 3.5 0.00 0.00 0.00 75 1017.9
20260503200137 58 270 1.7 1.7 0.00 0.00 0.00 75 1017.7
20260503195937 58 270 1.7 1.7 0.00 0.00 0.00 74 1017.8
20260503195738 59 248 1.7 1.7 0.00 0.00 0.00 74 1017.9
20260503195545 59 270 1.7 1.7 0.00 0.00 0.00 74 1017.9
20260503195337 59 270 1.7 1.7 0.00 0.00 0.00 74 1017.9
20260503195137 59 270 1.7 1.7 0.00 0.00 0.00 73 1017.8
20260503194938 59 292 0.9 1.7 0.00 0.00 0.00 73 1017.9
20260503194340 59 248 0.9 1.7 0.00 0.00 0.00 72 1017.9
20260503194137 59 248 1.7 1.7 0.00 0.00 0.00 72 1018.0
20260503193736 60 270 0.9 1.7 0.00 0.00 0.00 72 1017.8
20260503193540 60 248 0.9 1.7 0.00 0.00 0.00 72 1017.9
20260503193337 60 248 0.9 1.7 0.00 0.00 0.00 72 1017.7
20260503193137 60 248 0.0 0.0 0.00 0.00 0.00 72 1017.6
20260503192939 60 270 0.0 0.0 0.00 0.00 0.00 72 1017.9
20260503192737 60 248 0.0 0.0 0.00 0.00 0.00 72 1017.6
20260503192544 60 248 0.0 0.0 0.00 0.00 0.00 72 1017.6
20260503191938 60 248 0.0 0.0 0.00 0.00 0.00 72 1017.5
20260503191738 60 248 0.0 0.0 0.00 0.00 0.00 72 1017.8
20260503191545 60 248 0.0 0.0 0.00 0.00 0.00 71 1017.6
20260503191338 60 248 0.0 1.7 0.00 0.00 0.00 71 1017.5
20260503190936 60 248 0.0 0.0 0.00 0.00 0.00 71 1017.4
20260503190737 60 248 0.0 0.0 0.00 0.00 0.00 71 1017.5
20260503190542 60 270 0.0 1.7 0.00 0.00 0.00 70 1017.5
20260503190338 60 270 0.9 1.7 0.00 0.00 0.00 70 1017.5
20260503190138 61 270 0.0 1.7 0.00 0.00 0.00 70 1017.5
20260503185938 61 270 1.7 1.7 0.00 0.00 0.00 69 1017.6
20260503185739 61 270 0.9 1.7 0.00 0.00 0.00 69 1017.7
20260503185544 61 248 0.9 1.7 0.00 0.00 0.00 68 1017.5
20260503184938 62 225 0.9 1.7 0.00 0.00 0.00 68 1017.4
20260503184737 62 225 0.9 1.7 0.00 0.00 0.00 68 1017.5
20260503184544 62 225 0.9 1.7 0.00 0.00 0.00 68 1017.6
20260503184338 62 202 0.9 1.7 0.00 0.00 0.00 68 1017.2
20260503184137 62 248 1.7 3.5 0.00 0.00 0.00 67 1017.4
20260503183938 62 225 1.7 1.7 0.00 0.00 0.00 67 1017.3
20260503183739 62 225 1.7 3.5 0.00 0.00 0.00 67 1017.5
20260503183541 62 225 1.7 3.5 0.00 0.00 0.00 67 1017.5
20260503183338 62 225 1.7 3.5 0.00 0.00 0.00 67 1017.4
20260503183138 63 225 1.7 1.7 0.00 0.00 0.00 66 1017.4
20260503182939 63 225 1.7 3.5 0.00 0.00 0.00 66 1017.4
20260503182738 63 225 0.9 1.7 0.00 0.00 0.00 65 1017.5
20260503182139 64 180 1.7 3.5 0.00 0.00 0.00 63 1017.2
20260503181937 64 225 1.7 3.5 0.00 0.00 0.00 63 1017.4
20260503181737 64 180 0.9 1.7 0.00 0.00 0.00 62 1017.2
20260503181544 64 248 1.7 3.5 0.00 0.00 0.00 62 1017.4
20260503181336 64 202 1.7 3.5 0.00 0.00 0.00 62 1017.5
20260503181139 64 202 1.7 1.7 0.00 0.00 0.00 62 1017.3
20260503180937 64 202 1.7 3.5 0.00 0.00 0.00 62 1017.3
20260503180736 65 202 1.7 1.7 0.00 0.00 0.00 61 1017.3
20260503180542 65 180 1.7 3.5 0.00 0.00 0.00 61 1017.3
20260503180339 65 180 1.7 3.5 0.00 0.00 0.00 61 1017.2
20260503180138 65 180 1.7 3.5 0.00 0.00 0.00 61 1017.3
20260503175937 65 180 2.6 3.5 0.00 0.00 0.00 60 1017.3
20260503175543 65 202 2.6 3.5 0.00 0.00 0.00 59 1017.2
20260503175337 66 225 2.6 3.5 0.00 0.00 0.00 58 1017.2
20260503175137 66 158 3.5 6.1 0.00 0.00 0.00 58 1017.2
20260503174937 66 202 3.5 5.2 0.00 0.00 0.00 58 1017.3
20260503174739 66 135 2.6 3.5 0.00 0.00 0.00 58 1017.1
20260503174545 66 135 1.7 3.5 0.00 0.00 0.00 58 1017.3
20260503174337 66 202 2.6 3.5 0.00 0.00 0.00 57 1017.3
20260503174138 66 180 3.5 5.2 0.00 0.00 0.00 56 1017.2
20260503173937 67 180 1.7 3.5 0.00 0.00 0.00 55 1017.1
20260503173541 67 202 1.7 3.5 0.00 0.00 0.00 54 1017.2
20260503173337 67 225 1.7 3.5 0.00 0.00 0.00 55 1017.0
20260503173136 67 112 1.7 3.5 0.00 0.00 0.00 55 1017.1
20260503172937 67 158 1.7 3.5 0.00 0.00 0.00 56 1017.1
20260503172737 67 158 3.5 5.2 0.00 0.00 0.00 54 1017.3
20260503172337 68 180 2.6 3.5 0.00 0.00 0.00 54 1017.3
20260503172137 68 180 2.6 3.5 0.00 0.00 0.00 53 1017.0
20260503171937 68 158 2.6 3.5 0.00 0.00 0.00 53 1017.1
20260503171737 68 158 1.7 3.5 0.00 0.00 0.00 53 1017.1
20260503171543 68 180 4.3 6.1 0.00 0.00 0.00 53 1017.1
20260503171337 69 158 2.6 5.2 0.00 0.00 0.00 52 1016.9
20260503171137 69 202 1.7 3.5 0.00 0.00 0.00 52 1016.9
20260503170937 69 180 2.6 3.5 0.00 0.00 0.00 52 1017.2
20260503170736 69 158 1.7 3.5 0.00 0.00 0.00 51 1017.0
20260503170541 69 180 3.5 5.2 0.00 0.00 0.00 51 1017.1
20260503170139 69 158 3.5 5.2 0.00 0.00 0.00 51 1017.0
20260503160138 71 158 5.2 7.0 0.00 0.00 0.00 52 1016.6
20260503150938 73 112 4.3 7.0 0.00 0.00 0.00 48 1016.4
20260503150737 73 135 3.5 6.1 0.00 0.00 0.00 50 1016.4
20260503150540 73 202 4.3 6.1 0.00 0.00 0.00 48 1016.5
20260503150337 73 180 5.2 7.8 0.00 0.00 0.00 49 1016.3
20260503150137 73 225 3.5 5.2 0.00 0.00 0.00 48 1016.3
20260503140135 74 112 4.3 7.0 0.00 0.00 0.00 41 1016.5
20260503130937 79 315 1.7 3.5 0.00 0.00 0.00 28 1016.9
20260503130737 79 22 3.5 3.5 0.00 0.00 0.00 29 1016.9
20260503130541 79 45 4.3 9.6 0.00 0.00 0.00 29 1016.8
20260503130337 80 292 3.5 9.6 0.00 0.00 0.00 29 1016.8
20260503130138 80 315 4.3 7.8 0.00 0.00 0.00 29 1016.8
20260503120136 79 315 5.2 7.8 0.00 0.00 0.00 30 1017.1
20260503110738 77 112 1.7 5.2 0.00 0.00 0.00 32 1017.2
20260503110338 77 338 7.0 11.3 0.00 0.00 0.00 31 1017.2
20260503110137 77 0 7.0 9.6 0.00 0.00 0.00 32 1017.3
20260503090338 74 0 6.1 9.6 0.00 0.00 0.00 36 1018.0
20260503081542 71 315 7.8 13.9 0.00 0.00 0.00 39 1018.1
20260503081338 71 315 7.0 13.0 0.00 0.00 0.00 38 1018.1
20260503081137 71 270 8.7 13.0 0.00 0.00 0.00 38 1018.2
20260503080736 71 292 7.8 13.0 0.00 0.00 0.00 38 1018.2
20260503080338 71 292 10.4 13.0 0.00 0.00 0.00 39 1018.0
20260503080139 71 292 7.0 11.3 0.00 0.00 0.00 38 1018.1
20260503072937 69 292 4.3 7.0 0.00 0.00 0.00 41 1018.2
20260503072737 69 292 6.1 9.6 0.00 0.00 0.00 41 1018.3
20260503072339 68 292 7.0 9.6 0.00 0.00 0.00 41 1018.2
20260503072138 68 338 7.0 11.3 0.00 0.00 0.00 41 1018.3
20260503071939 68 292 7.8 11.3 0.00 0.00 0.00 41 1018.2
20260503071739 68 270 7.0 9.6 0.00 0.00 0.00 40 1018.1
20260503071544 68 315 9.6 13.9 0.00 0.00 0.00 40 1018.2
20260503071339 68 270 9.6 12.2 0.00 0.00 0.00 41 1018.1
20260503071137 68 292 8.7 13.0 0.00 0.00 0.00 40 1018.2
20260503070937 68 315 7.0 9.6 0.00 0.00 0.00 40 1018.4
20260503070738 68 292 6.1 7.8 0.00 0.00 0.00 41 1018.2
20260503070339 68 292 7.0 13.0 0.00 0.00 0.00 40 1018.1
20260503070136 68 315 9.6 12.2 0.00 0.00 0.00 40 1018.1
20260503060339 63 292 7.0 12.2 0.00 0.00 0.00 47 1018.2
20260503060138 63 292 7.0 12.2 0.00 0.00 0.00 47 1018.1
20260503054937 62 338 7.0 12.2 0.00 0.00 0.00 48 1018.2
20260503054544 61 292 9.6 12.2 0.00 0.00 0.00 47 1018.2
20260503054339 61 292 7.8 12.2 0.00 0.00 0.00 48 1018.2
20260503054138 61 270 9.6 12.2 0.00 0.00 0.00 47 1018.1
20260503053938 61 248 7.0 9.6 0.00 0.00 0.00 48 1018.2
20260503053738 61 270 9.6 13.0 0.00 0.00 0.00 48 1018.1
20260503053542 61 292 7.8 12.2 0.00 0.00 0.00 49 1018.3
20260503053354 60 292 8.7 12.2 0.00 0.00 0.00 49 1018.2
20260503053138 60 292 7.0 9.6 0.00 0.00 0.00 49 1018.1
20260503052936 60 270 7.0 9.6 0.00 0.00 0.00 49 1018.1
20260503052739 60 270 6.1 9.6 0.00 0.00 0.00 50 1018.2
20260503052544 60 270 5.2 9.6 0.00 0.00 0.00 51 1018.2
20260503052138 59 270 7.0 11.3 0.00 0.00 0.00 51 1018.1
20260503051939 59 270 5.2 7.8 0.00 0.00 0.00 53 1018.0
20260503051544 58 270 5.2 9.6 0.00 0.00 0.00 53 1018.1
20260503051339 58 248 7.0 11.3 0.00 0.00 0.00 52 1018.2
20260503051137 58 292 6.1 7.0 0.00 0.00 0.00 52 1018.2
20260503050938 58 292 4.3 7.0 0.00 0.00 0.00 52 1018.2
20260503050737 58 248 5.2 7.8 0.00 0.00 0.00 52 1018.2
20260503050540 58 292 6.1 7.8 0.00 0.00 0.00 52 1018.3
20260503050338 57 270 7.0 11.3 0.00 0.00 0.00 53 1018.2
20260503050138 57 292 3.5 6.1 0.00 0.00 0.00 55 1018.3
20260503045738 56 270 3.5 5.2 0.00 0.00 0.00 56 1018.0
20260503045543 56 292 4.3 7.0 0.00 0.00 0.00 56 1018.2
20260503045339 56 292 3.5 5.2 0.00 0.00 0.00 56 1018.1
20260503044938 55 315 4.3 7.8 0.00 0.00 0.00 56 1018.1
20260503044737 55 248 3.5 7.0 0.00 0.00 0.00 57 1018.1
20260503044543 55 270 3.5 3.5 0.00 0.00 0.00 57 1018.1
20260503044137 54 292 3.5 5.2 0.00 0.00 0.00 58 1018.1
20260503043938 54 292 3.5 6.1 0.00 0.00 0.00 58 1018.1
20260503043738 54 270 5.2 7.8 0.00 0.00 0.00 58 1018.2
20260503043540 53 270 3.5 3.5 0.00 0.00 0.00 60 1017.9
20260503043337 53 292 3.5 5.2 0.00 0.00 0.00 60 1018.0
20260503043136 53 270 4.3 7.8 0.00 0.00 0.00 60 1018.1
20260503042937 53 270 3.5 7.0 0.00 0.00 0.00 61 1018.0
20260503042737 53 270 4.3 9.6 0.00 0.00 0.00 61 1017.9
20260503042544 53 248 5.2 7.0 0.00 0.00 0.00 61 1017.9
20260503042339 53 292 5.2 9.6 0.00 0.00 0.00 61 1017.9
20260503042137 53 292 5.2 7.8 0.00 0.00 0.00 62 1018.0
20260503041938 52 292 4.3 7.0 0.00 0.00 0.00 62 1018.0
20260503041737 52 270 4.3 7.0 0.00 0.00 0.00 62 1017.9
20260503041545 52 292 4.3 7.0 0.00 0.00 0.00 62 1017.9
20260503041403 53 315 3.5 5.2 0.00 0.00 0.00 62 1017.9
20260503041138 53 292 4.3 7.0 0.00 0.00 0.00 62 1017.8
20260503040939 53 270 4.3 7.0 0.00 0.00 0.00 61 1018.0
20260503040739 52 315 4.3 7.0 0.00 0.00 0.00 62 1017.8
20260503040540 52 270 5.2 7.8 0.00 0.00 0.00 62 1017.9
20260503040138 52 270 4.3 7.0 0.00 0.00 0.00 62 1018.1
20260503035937 52 270 4.3 7.0 0.00 0.00 0.00 61 1018.0
20260503035738 52 270 5.2 9.6 0.00 0.00 0.00 61 1018.0
20260503035544 52 270 4.3 6.1 0.00 0.00 0.00 62 1017.9
20260503035338 53 270 5.2 9.6 0.00 0.00 0.00 62 1018.1
20260503035137 53 270 7.0 9.6 0.00 0.00 0.00 61 1018.0
20260503034937 52 270 7.8 12.2 0.00 0.00 0.00 61 1018.0
20260503034737 52 292 5.2 9.6 0.00 0.00 0.00 62 1017.9
20260503034544 52 292 6.1 7.8 0.00 0.00 0.00 62 1018.1
20260503034138 52 292 4.3 7.0 0.00 0.00 0.00 62 1017.9
20260503033739 53 292 7.0 9.6 0.00 0.00 0.00 62 1017.9
20260503033540 53 270 5.2 7.0 0.00 0.00 0.00 61 1018.0
20260503033338 53 270 5.2 7.8 0.00 0.00 0.00 61 1017.8
20260503033138 53 315 6.1 7.8 0.00 0.00 0.00 61 1018.0
20260503032938 53 270 6.1 9.6 0.00 0.00 0.00 61 1017.8
20260503032737 53 292 5.2 7.0 0.00 0.00 0.00 61 1018.0
20260503032545 53 292 6.1 7.8 0.00 0.00 0.00 60 1017.8
20260503032340 53 292 5.2 7.8 0.00 0.00 0.00 60 1017.8
20260503032138 53 315 6.1 7.8 0.00 0.00 0.00 60 1017.9
20260503031938 53 248 5.2 7.8 0.00 0.00 0.00 60 1018.0
20260503031739 53 292 4.3 7.8 0.00 0.00 0.00 60 1018.0
20260503031544 53 270 6.1 9.6 0.00 0.00 0.00 59 1018.1
20260503031339 53 292 6.1 7.8 0.00 0.00 0.00 59 1018.0
20260503031137 53 270 3.5 7.8 0.00 0.00 0.00 60 1018.2
20260503030939 53 270 6.1 9.6 0.00 0.00 0.00 59 1018.0
20260503030339 53 315 5.2 7.0 0.00 0.00 0.00 60 1018.2
20260503030138 53 270 4.3 7.0 0.00 0.00 0.00 61 1018.1
20260503025941 53 292 4.3 6.1 0.00 0.00 0.00 61 1018.2
20260503025738 53 292 4.3 6.1 0.00 0.00 0.00 61 1018.1
20260503025544 53 292 3.5 6.1 0.00 0.00 0.00 61 1018.2
20260503025339 53 270 3.5 5.2 0.00 0.00 0.00 61 1018.3
20260503025138 53 270 3.5 7.0 0.00 0.00 0.00 61 1018.1
20260503024738 53 270 3.5 6.1 0.00 0.00 0.00 61 1018.1
20260503024543 53 292 3.5 5.2 0.00 0.00 0.00 61 1018.2
20260503024341 53 248 3.5 5.2 0.00 0.00 0.00 61 1018.2
20260503024138 53 292 4.3 6.1 0.00 0.00 0.00 60 1018.1
20260503023737 53 315 3.5 6.1 0.00 0.00 0.00 60 1018.1
20260503023541 53 270 5.2 7.0 0.00 0.00 0.00 60 1018.2
20260503023340 53 292 4.3 7.0 0.00 0.00 0.00 60 1018.3
20260503022937 53 292 4.3 9.6 0.00 0.00 0.00 60 1018.2
20260503022737 53 270 5.2 7.8 0.00 0.00 0.00 60 1018.4
20260503022339 53 292 3.5 7.0 0.00 0.00 0.00 60 1018.4
20260503022138 53 292 5.2 7.8 0.00 0.00 0.00 61 1018.3